Crookston, MN

5:14 AM CDT on June 28, 2017 (GMT -0500)
Crookston Municipal-Kirkwood

Weather History for KCKN - April, 2013

Change the Weather History Date:

Monday, April 8, 2013

  Actual Average Record
Temperature  
Mean Temperature 24 °F -  
Max Temperature 32 °F 46 °F 93 °F (1999)
Min Temperature 15 °F 28 °F 15 °F (2007)
Degree Days  
Heating Degree Days 42    
Moisture  
Dew Point 22 °F    
Average Humidity 87    
Maximum Humidity 100    
Minimum Humidity 73    
Precipitation  
Precipitation 0.00 in - - ()
Sea Level Pressure  
Sea Level Pressure 30.01 in    
Wind  
Wind Speed 14 mph (North)    
Max Wind Speed 30 mph    
Max Gust Speed 37 mph    
Visibility 9 miles    
Events      
Averages and records for this station are not official NWS values.
T = Trace of Precipitation, MM = Missing Value Source: NWS Daily Summary

Daily Weather History Graph

Daily Weather History Graph

Search for Another Location

Airport or City:

Trip Planner

Search our weather history database for the weather conditions in past years. The results will help you decide how hot, cold, wet, or windy it might be!

Date:

Astronomy

Apr. 08, 2013 Rise Set
Actual Time 6:50 AM CDT 8:06 PM CDT
Civil Twilight 6:18 AM CDT 8:38 PM CDT
Nautical Twilight 5:40 AM CDT 9:17 PM CDT
Astronomical Twilight 4:58 AM CDT 9:59 PM CDT
Moon 5:47 AM CDT (4/8) 6:38 PM CDT (4/8)
Length of Visible Light 14h 20m
Length of Day
13h 16m
Waning Crescent, 3% of the Moon is Illuminated
Apr 8
Waning Crescent
Apr 10
New
Apr 18
First Quarter
Apr 25
Full
May 2
Last Quarter

Hourly Weather History & Observations

Time (CDT) Temp. Windchill Dew Point Humidity Pressure Visibility Wind Dir Wind Speed Gust Speed Precip Events Conditions
12:15 AM 32.0 °F 26.4 °F 32.0 °F 100% 29.83 in 10.0 mi East 5.8 mph - N/A   Overcast
12:34 AM 32.0 °F 27.5 °F 30.2 °F 93% 29.83 in 10.0 mi ENE 4.6 mph - N/A   Overcast
12:54 AM 32.0 °F 27.5 °F 30.2 °F 93% 29.84 in 10.0 mi ENE 4.6 mph - N/A   Overcast
1:15 AM 32.0 °F 26.4 °F 30.2 °F 93% 29.84 in 10.0 mi NE 5.8 mph - N/A   Overcast
1:34 AM 32.0 °F 28.7 °F 30.2 °F 93% 29.84 in 10.0 mi ENE 3.5 mph - N/A   Overcast
1:54 AM 32.0 °F 28.7 °F 30.2 °F 93% 29.85 in 10.0 mi NE 3.5 mph - N/A   Overcast
2:15 AM 32.0 °F 27.5 °F 30.2 °F 93% 29.85 in 10.0 mi NE 4.6 mph - N/A   Overcast
2:34 AM 32.0 °F 26.4 °F 30.2 °F 93% 29.85 in 10.0 mi NNE 5.8 mph - N/A   Overcast
2:54 AM 32.0 °F 26.4 °F 30.2 °F 93% 29.85 in 10.0 mi NNE 5.8 mph - N/A   Overcast
3:15 AM 32.0 °F 25.6 °F 30.2 °F 93% 29.85 in 10.0 mi NNE 6.9 mph - N/A   Overcast
3:34 AM 32.0 °F 25.6 °F 30.2 °F 93% 29.85 in 10.0 mi NE 6.9 mph - N/A   Overcast
3:54 AM 32.0 °F 25.6 °F 30.2 °F 93% 29.84 in 10.0 mi NE 6.9 mph - N/A   Overcast
4:15 AM 32.0 °F 25.6 °F 30.2 °F 93% 29.84 in 10.0 mi NE 6.9 mph - N/A   Overcast
4:34 AM 32.0 °F 25.6 °F 30.2 °F 93% 29.85 in 10.0 mi NNE 6.9 mph - N/A   Overcast
4:55 AM 32.0 °F 24.8 °F 30.2 °F 93% 29.85 in 10.0 mi NNE 8.1 mph - N/A   Overcast
5:15 AM 30.2 °F 21.9 °F 30.2 °F 100% 29.86 in 10.0 mi NNE 9.2 mph - N/A   Overcast
5:34 AM 30.2 °F 21.9 °F 30.2 °F 100% 29.86 in 10.0 mi NNE 9.2 mph - N/A   Overcast
5:55 AM 30.2 °F 21.9 °F 30.2 °F 100% 29.87 in 10.0 mi NNE 9.2 mph - N/A   Overcast
6:15 AM 30.2 °F 21.9 °F 30.2 °F 100% 29.88 in 10.0 mi North 9.2 mph - N/A   Overcast
6:34 AM 30.2 °F 21.3 °F 30.2 °F 100% 29.88 in 10.0 mi NNE 10.4 mph - N/A   Overcast
6:55 AM 30.2 °F 20.2 °F 28.4 °F 93% 29.89 in 10.0 mi NNE 12.7 mph - N/A   Overcast
7:15 AM 30.2 °F 20.8 °F 28.4 °F 93% 29.89 in 10.0 mi North 11.5 mph - N/A   Overcast
7:34 AM 30.2 °F 19.8 °F 28.4 °F 93% 29.90 in 10.0 mi North 13.8 mph - N/A   Overcast
7:55 AM 30.2 °F 18.1 °F 28.4 °F 93% 29.90 in 10.0 mi North 18.4 mph - N/A   Overcast
8:14 AM 28.4 °F 15.4 °F 26.6 °F 93% 29.91 in 10.0 mi North 19.6 mph 23.0 mph N/A   Overcast
8:34 AM 28.4 °F 17.0 °F 26.6 °F 93% 29.91 in 10.0 mi NNE 15.0 mph 23.0 mph N/A   Overcast
8:55 AM 28.4 °F 16.2 °F 26.6 °F 93% 29.92 in 10.0 mi NNE 17.3 mph - N/A   Overcast
9:14 AM 28.4 °F 18.0 °F 26.6 °F 93% 29.92 in 10.0 mi North 12.7 mph - N/A   Overcast
9:34 AM 26.6 °F 13.4 °F 24.8 °F 93% 29.92 in 10.0 mi North 18.4 mph 23.0 mph N/A   Overcast
9:55 AM 26.6 °F 13.4 °F 24.8 °F 93% 29.92 in 10.0 mi North 18.4 mph - N/A   Overcast
10:14 AM 26.6 °F 14.7 °F 24.8 °F 93% 29.92 in 10.0 mi NNE 15.0 mph 21.9 mph N/A   Overcast
10:34 AM 28.4 °F 17.0 °F 24.8 °F 86% 29.93 in 10.0 mi NNE 15.0 mph - N/A   Overcast
10:55 AM 28.4 °F 16.2 °F 24.8 °F 86% 29.95 in 10.0 mi North 17.3 mph - N/A   Overcast
11:14 AM 28.4 °F 15.8 °F 24.8 °F 86% 29.96 in 10.0 mi North 18.4 mph - N/A   Mostly Cloudy
11:34 AM 26.6 °F 12.4 °F 21.2 °F 80% 29.97 in 10.0 mi North 21.9 mph - N/A   Mostly Cloudy
11:55 AM 26.6 °F 12.4 °F 21.2 °F 80% 29.98 in 10.0 mi North 21.9 mph 25.3 mph N/A   Overcast
12:14 PM 24.8 °F 9.6 °F 21.2 °F 86% 30.00 in 10.0 mi North 23.0 mph - N/A   Overcast
12:35 PM 24.8 °F 9.3 °F 19.4 °F 80% 30.01 in 10.0 mi North 24.2 mph - N/A   Overcast
12:54 PM 24.8 °F 8.7 °F 19.4 °F 80% 30.01 in 7.0 mi North 26.5 mph - N/A   Overcast
1:14 PM 24.8 °F 8.7 °F 19.4 °F 80% 30.03 in 4.0 mi North 26.5 mph - N/A   Overcast
1:35 PM 24.8 °F 9.0 °F 19.4 °F 80% 30.04 in 5.0 mi North 25.3 mph - N/A   Overcast
1:54 PM 24.8 °F 8.7 °F 19.4 °F 80% 30.04 in 5.0 mi North 26.5 mph - N/A   Overcast
2:14 PM 24.8 °F 9.0 °F 19.4 °F 80% 30.06 in 7.0 mi North 25.3 mph 31.1 mph N/A   Overcast
2:35 PM 24.8 °F 9.0 °F 21.2 °F 86% 30.06 in 5.0 mi North 25.3 mph - N/A   Overcast
2:54 PM 24.8 °F 9.0 °F 19.4 °F 80% 30.06 in 5.0 mi North 25.3 mph - N/A   Haze
3:14 PM 24.8 °F 8.4 °F 19.4 °F 80% 30.07 in 7.0 mi North 27.6 mph - N/A   Overcast
3:35 PM 24.8 °F 8.4 °F 19.4 °F 80% 30.07 in 7.0 mi North 27.6 mph - N/A   Overcast
3:54 PM 24.8 °F 8.4 °F 19.4 °F 80% 30.08 in 7.0 mi North 27.6 mph - N/A   Overcast
4:15 PM 24.8 °F 8.7 °F 19.4 °F 80% 30.09 in 7.0 mi North 26.5 mph 33.4 mph N/A   Scattered Clouds
4:34 PM 24.8 °F 8.7 °F 19.4 °F 80% 30.10 in 7.0 mi North 26.5 mph - N/A   Clear
4:54 PM 24.8 °F 8.4 °F 19.4 °F 80% 30.11 in 7.0 mi North 27.6 mph 31.1 mph N/A   Scattered Clouds
5:15 PM 24.8 °F 8.4 °F 19.4 °F 80% 30.12 in 7.0 mi North 27.6 mph - N/A   Scattered Clouds
5:34 PM 23.0 °F 6.6 °F 19.4 °F 86% 30.14 in 5.0 mi North 25.3 mph 31.1 mph N/A   Scattered Clouds
5:54 PM 23.0 °F 6.0 °F 17.6 °F 80% 30.15 in 5.0 mi North 27.6 mph - N/A   Haze
6:15 PM 21.2 °F 3.9 °F 17.6 °F 86% 30.14 in 7.0 mi North 26.5 mph 33.4 mph N/A   Scattered Clouds
6:34 PM 21.2 °F 4.9 °F 17.6 °F 86% 30.16 in 4.0 mi North 23.0 mph - N/A   Scattered Clouds
6:54 PM 21.2 °F 4.5 °F 17.6 °F 86% 30.16 in 7.0 mi North 24.2 mph 27.6 mph N/A   Clear
7:15 PM 21.2 °F 4.5 °F 17.6 °F 86% 30.17 in 7.0 mi North 24.2 mph - N/A   Scattered Clouds
7:34 PM 19.4 °F 2.1 °F 15.8 °F 86% 30.18 in 10.0 mi North 24.2 mph - N/A   Mostly Cloudy
7:54 PM 19.4 °F 1.8 °F 15.8 °F 86% 30.19 in 10.0 mi North 25.3 mph - N/A   Mostly Cloudy
8:15 PM 19.4 °F 1.4 °F 15.8 °F 86% 30.19 in 5.0 mi North 26.5 mph 32.2 mph N/A   Mostly Cloudy
8:34 PM 19.4 °F 2.1 °F 15.8 °F 86% 30.20 in 7.0 mi North 24.2 mph 31.1 mph N/A   Scattered Clouds
8:54 PM 17.6 °F -1.3 °F 14.0 °F 86% 30.21 in 5.0 mi North 27.6 mph 33.4 mph N/A   Clear
9:15 PM 17.6 °F -0.3 °F 14.0 °F 86% 30.22 in 7.0 mi North 24.2 mph 31.1 mph N/A   Clear
9:34 PM 17.6 °F -1.9 °F 12.2 °F 79% 30.23 in 5.0 mi North 29.9 mph 36.8 mph N/A   Haze
9:54 PM 17.6 °F -0.6 °F 10.4 °F 73% 30.25 in 10.0 mi North 25.3 mph 28.8 mph N/A   Clear
10:14 PM 17.6 °F 0.1 °F 10.4 °F 73% 30.26 in 10.0 mi North 23.0 mph 28.8 mph N/A   Scattered Clouds
10:34 PM 17.6 °F -0.6 °F 10.4 °F 73% 30.27 in 10.0 mi North 25.3 mph 28.8 mph N/A   Mostly Cloudy
10:55 PM 17.6 °F -0.6 °F 10.4 °F 73% 30.28 in 10.0 mi North 25.3 mph - N/A   Overcast
11:14 PM 15.8 °F -1.9 °F 10.4 °F 79% 30.28 in 10.0 mi North 21.9 mph 26.5 mph N/A   Overcast
11:34 PM 15.8 °F -1.1 °F 8.6 °F 73% 30.29 in 10.0 mi North 19.6 mph - N/A   Overcast
11:55 PM 15.8 °F -0.6 °F 8.6 °F 73% 30.29 in 10.0 mi North 18.4 mph - N/A   Mostly Cloudy